This is the latest recevied weather packets stored in our database for station/object KI5NXU. If no packets are shown the sender has not sent any weather packets the latest 10 day(s).
| Time | Temp. | Humidity | Pressure | Rain* | Wind** | Luminosity | Snow |
|---|---|---|---|---|---|---|---|
| 1777649187 | 15° C | 85% | 1016.2 hPa | 0 mm | - | 215 W/m² | - |
| 1777648884 | 15° C | 86% | 1016.2 hPa | 0 mm | - | 264 W/m² | - |
| 1777648278 | 14.44° C | 87% | 1016.3 hPa | 0 mm | - | 239 W/m² | - |
| 1777647974 | 14.44° C | 88% | 1016.2 hPa | 0 mm | - | 154 W/m² | - |
| 1777647670 | 14.44° C | 88% | 1016.7 hPa | 0 mm | - | 138 W/m² | - |
| 1777647366 | 14.44° C | 89% | 1016.4 hPa | 0 mm | - | 127 W/m² | - |
| 1777647065 | 13.89° C | 89% | 1016.2 hPa | 0 mm | - | 176 W/m² | - |
| 1777646761 | 13.89° C | 90% | 1015.9 hPa | 0 mm | - | 151 W/m² | - |
| 1777646461 | 13.89° C | 91% | 1015.6 hPa | 0 mm | - | 115 W/m² | - |
| 1777646158 | 13.89° C | 91% | 1016.1 hPa | 0 mm | - | 77 W/m² | - |
| 1777645855 | 13.89° C | 91% | 1016 hPa | 0 mm | - | 69 W/m² | - |
| 1777645552 | 13.89° C | 91% | 1016.1 hPa | 0 mm | - | 60 W/m² | - |
| 1777645248 | 13.33° C | 91% | 1016.1 hPa | 0 mm | - | 49 W/m² | - |
| 1777644944 | 13.33° C | 91% | 1015.9 hPa | 0 mm | - | 58 W/m² | - |
| 1777644642 | 13.33° C | 91% | 1016.2 hPa | 0 mm | - | 46 W/m² | - |
| 1777644338 | 13.33° C | 91% | 1016 hPa | 0 mm | - | 44 W/m² | - |
| 1777644034 | 13.33° C | 91% | 1016 hPa | 0 mm | - | 51 W/m² | - |
| 1777643731 | 13.33° C | 92% | 1015.6 hPa | 0 mm | - | 69 W/m² | - |
| 1777643428 | 13.33° C | 92% | 1015.7 hPa | 0 mm | - | 69 W/m² | - |
| 1777643125 | 13.33° C | 92% | 1016.2 hPa | 0 mm | - | 48 W/m² | - |
| 1777642821 | 13.33° C | 92% | 1016.1 hPa | 0 mm | - | 35 W/m² | - |
| 1777642519 | 13.33° C | 92% | 1016.3 hPa | 0 mm | - | 29 W/m² | - |
| 1777642215 | 13.33° C | 92% | 1016.1 hPa | 0 mm | - | 34 W/m² | - |
| 1777641912 | 13.33° C | 92% | 1016 hPa | 0 mm | - | 44 W/m² | - |
| 1777641607 | 12.78° C | 92% | 1015.5 hPa | 0 mm | - | 45 W/m² | - |
* Rain latest hour (hover to see other rain measurements)
** Current wind speed in m/s (hover to see current wind gust speed)